This demonstration page uses our WeatherBlox Daily Observations layout. Learn more.

Left ArrowRight Arrow

39.01783, -85.05884

Hourly Observations for March 13, 2017

Temp ( °F °C ) Dew Point ( °F °C ) Humidity (%) Winds ( mph kmh ) Pressure ( in mb ) Visibility ( mi km ) Precip ( " mm )
12:52 am 00:52 Cloudy 32 0 15 -9.4 50 50 E 13 20 30.27 1025 10 16 0.00 0.00
1:52 am 01:52 Cloudy 31 -0.6 15 -9.4 52 52 ENE 9 15 30.27 1025 10 16 0.00 0.00
2:52 am 02:52 Cloudy 31 -0.6 15 -9.4 52 52 ENE 13 20 30.26 1025 10 16 0.00 0.00
3:52 am 03:52 Cloudy 30 -1.1 15 -9.4 54 54 ENE 9 15 30.24 1024 10 16 0.00 0.00
4:52 am 04:52 Cloudy 30 -1.1 15 -9.4 54 54 ENE 9 15 30.24 1024 10 16 0.00 0.00
5:52 am 05:52 Cloudy 30 -1.1 16 -8.9 56 56 ENE 12 19 30.23 1024 10 16 0.00 0.00
6:52 am 06:52 Cloudy 29 -1.7 16 -8.9 58 58 E 12 19 30.21 1023 10 16 0.00 0.00
7:52 am 07:52 Cloudy 29 -1.7 17 -8.3 61 61 E 14 22 30.17 1022 10 16 0.00 0.00
8:52 am 08:52 Cloudy 29 -1.7 17 -8.3 61 61 ESE 9 15 30.18 1022 10 16 0.00 0.00
9:52 am 09:52 Cloudy 32 0 17 -8.3 54 54 E 10 17 30.15 1021 10 16 0.00 0.00
10:52 am 10:52 Cloudy 33 0.6 17 -8.3 52 52 VRB 6 9 30.13 1020 10 16 0.00 0.00
11:52 am 11:52 Cloudy 36 2.2 17 -8.3 46 46 ESE 5 7 30.12 1020 10 16 0.00 0.00
12:52 pm 12:52 Cloudy 39 3.9 18 -7.8 43 43 Calm 30.10 1019 10 16 0.00 0.00
1:52 pm 13:52 Cloudy 40 4.4 17 -8.3 40 40 Calm 30.07 1018 10 16 0.00 0.00
2:52 pm 14:52 Cloudy 41 5 19 -7.2 41 41 VRB 6 9 30.06 1018 10 16 0.00 0.00
3:52 pm 15:52 Cloudy 39 3.9 22 -5.6 50 50 WNW 9 15 30.05 1018 10 16 0.00 0.00
4:17 pm 16:17 Cloudy with Light Snow 37 2.8 25 -3.9 62 62 N 9 15 30.09 1019 2 3 0.00 0.03
4:41 pm 16:41 Cloudy with Light Snow 35 1.7 28 -2.2 76 76 NNW 12 19 30.09 1019 2 3 0.00 0.03
4:52 pm 16:52 Cloudy with Light Snow 34 1.1 29 -1.7 82 82 NNW 8 13 30.06 1018 1 2 0.00 0.03
5:52 pm 17:52 Cloudy with Light Snow 33 0.6 31 -0.6 92 92 N 12 19 30.04 1017 1 1 0.02 0.51
6:11 pm 18:11 Cloudy with Light Snow 32 0 31 -0.6 96 96 N 10 17 30.09 1019 1 1 0.01 0.25
6:26 pm 18:26 Cloudy with Snow 32 0 30 -1 93 93 N 10 17 30.09 1019 1 1 0.00 0.00
6:52 pm 18:52 Cloudy with Snow 32 0 31 -0.6 96 96 N 10 17 30.04 1017 1 1 0.04 1.02
7:14 pm 19:14 Cloudy with Light Snow 32 0 30 -1 93 93 N 10 17 30.06 1018 1 2 0.00 0.00
7:52 pm 19:52 Cloudy with Light Snow 32 0 30 -1.1 92 92 N 9 15 30.03 1017 2 3 0.01 0.25
8:52 pm 20:52 Cloudy with Mist and Fog 32 0 30 -1.1 92 92 NNE 10 17 30.02 1017 5 8 0.00 0.03
9:52 pm 21:52 Cloudy with Mist and Fog 32 0 30 -1.1 92 92 N 10 17 30.03 1017 5 8 0.00 0.00
10:52 pm 22:52 Cloudy with Light Snow 31 -0.6 29 -1.7 92 92 N 10 17 30.04 1017 4 6 0.00 0.03
11:52 pm 23:52 Cloudy with Light Snow 30 -1.1 28 -2.2 92 92 N 12 19 30.05 1018 4 6 0.00 0.03

Powered by AerisWeather